DW3857 Weather Reports


time (UTC)temp
C
wind
direction
speed
KPH
gust
KPH
rain 1hr
cm
rain 24hr
cm
rain mn
cm
humidity
%
barometer
mb
20260905223009 20 0.0 0.0 0.00 0.08 0.00 62 1021.1
20260905221507 20 0.0 0.0 0.00 0.08 0.00 62 1020.9
20260905220005 20 0.0 0.0 0.00 0.08 0.00 62 1020.7
20260905214504 20 0.0 0.0 0.00 0.08 0.08 61 1020.5
20260905213003 20 0.0 0.0 0.00 0.08 0.08 60 1020.5
20260905211502 21 0.0 0.0 0.00 0.08 0.08 59 1020.4
20260905210113 21 0.0 0.0 0.00 0.08 0.08 58 1020.3
20260905204607 21 0.0 0.0 0.00 0.08 0.08 58 1020.2
20260905203117 21 0.0 0.0 0.00 0.08 0.08 57 1020.1
20260905201601 21 0.0 0.0 0.00 0.08 0.08 58 1020.1
20260905194557 21 0.0 0.0 0.00 0.08 0.08 59 1019.8
20260905193055 21 0.0 0.0 0.00 0.08 0.08 60 1019.7
20260905191555 21 0.0 0.0 0.00 0.08 0.08 60 1019.7
20260905190053 21 0.0 0.0 0.00 0.08 0.08 60 1019.6
20260905184555 21 0.0 0.0 0.00 0.08 0.08 58 1019.4
20260905183055 21 0.0 0.0 0.00 0.08 0.08 57 1019.2
20260905181603 21 0.0 0.0 0.00 0.08 0.08 57 1019.0
20260905180047 21 0.0 0.0 0.00 0.08 0.08 56 1018.8
20260905174552 22 0.0 0.0 0.00 0.08 0.08 55 1018.5
20260905173047 22 0.0 0.0 0.00 0.08 0.08 54 1018.4
20260905171547 22 0.0 0.0 0.00 0.08 0.08 53 1018.2
20260905170046 23 0.0 0.0 0.00 0.08 0.08 51 1018.1
20260905164545 23 0.0 0.0 0.00 0.08 0.08 50 1017.9
20260905163047 23 0.0 0.0 0.00 0.08 0.08 49 1017.6
20260905161544 23 0.0 0.0 0.00 0.08 0.08 49 1017.6
20260905160110 23 0.0 0.0 0.00 0.08 0.08 48 1017.6
20260905154548 24 0.0 0.0 0.00 0.08 0.08 48 1017.5
20260905153043 23 0.0 0.0 0.00 0.08 0.08 48 1017.5
20260905151544 23 0.0 0.0 0.00 0.08 0.08 49 1017.3
20260905150042 23 0.0 0.0 0.00 0.08 0.08 48 1017.3
20260905144542 24 0.0 0.0 0.00 0.08 0.08 49 1017.4
20260905143041 24 0.0 0.0 0.00 0.08 0.08 48 1017.5
20260905141543 23 0.0 0.0 0.00 0.08 0.08 49 1017.5
20260905140039 23 0.0 0.0 0.00 0.08 0.08 51 1017.5
20260905134539 23 0.0 0.0 0.00 0.08 0.08 52 1017.6
20260905133040 23 0.0 0.0 0.00 0.08 0.08 52 1017.6
20260905131538 23 0.0 0.0 0.00 0.08 0.08 53 1017.8
20260905130037 22 0.0 0.0 0.00 0.08 0.08 53 1017.9
20260905124541 22 0.0 0.0 0.00 0.08 0.08 53 1017.7
20260905123037 23 0.0 0.0 0.00 0.08 0.08 53 1017.7
20260905121535 22 0.0 0.0 0.00 0.08 0.08 56 1017.6
20260905120034 22 0.0 0.0 0.00 0.08 0.08 56 1017.8
20260905114534 22 0.0 0.0 0.00 0.08 0.08 56 1017.7
20260905113033 22 0.0 0.0 0.00 0.08 0.08 55 1017.7
20260905111533 22 0.0 0.0 0.00 0.08 0.08 57 1017.6
20260905110032 22 0.0 0.0 0.00 0.08 0.08 59 1017.9
20260905104531 21 0.0 0.0 0.00 0.08 0.08 61 1017.7
20260905103039 21 0.0 0.0 0.00 0.08 0.08 63 1017.8
20260905101533 21 0.0 0.0 0.00 0.08 0.08 64 1017.6
20260905100031 20 0.0 0.0 0.00 0.08 0.08 66 1017.6
20260905094536 19 0.0 0.0 0.00 0.08 0.08 69 1017.8
20260905093030 18 0.0 0.0 0.00 0.08 0.08 69 1017.8
20260905091600 18 0.0 0.0 0.00 0.08 0.08 72 1017.8
20260905090029 17 0.0 0.0 0.00 0.08 0.08 74 1017.7
20260905084528 17 0.0 0.0 0.00 0.08 0.08 74 1017.9
20260905083028 17 0.0 0.0 0.00 0.08 0.08 73 1017.9
20260905081527 17 0.0 0.0 0.00 0.08 0.08 70 1018.4
20260905080036 17 0.0 0.0 0.00 0.08 0.08 69 1018.6
20260905074526 17 0.0 0.0 0.00 0.08 0.08 69 1018.8
20260905073025 17 0.0 0.0 0.00 0.08 0.08 67 1018.9
20260905071523 18 0.0 0.0 0.00 0.08 0.08 66 1018.7
20260905070025 18 0.0 0.0 0.00 0.08 0.08 65 1018.1
20260905064521 18 0.0 0.0 0.00 0.08 0.08 65 1018.4
20260905063019 18 0.0 0.0 0.00 0.08 0.08 64 1018.1
20260905061517 18 0.0 0.0 0.00 0.08 0.08 62 1018.1
20260905060015 18 0.0 0.0 0.00 0.08 0.08 60 1017.2
20260905054516 18 0.0 0.0 0.00 0.08 0.08 64 1016.3
20260905053010 18 0.0 0.0 0.00 0.08 0.08 65 1015.9
20260905051512 18 0.0 0.0 0.00 0.08 0.08 69 1015.5
20260905050005 18 0.0 0.0 0.00 0.08 0.08 70 1015.2
20260905044505 18 0.0 0.0 0.00 0.08 0.08 71 1014.5
20260905043003 18 0.0 0.0 0.00 0.08 0.08 70 1014.3
20260905041502 18 0.0 0.0 0.00 0.08 0.08 70 1014.9
20260905040059 18 0.0 0.0 0.00 0.08 0.08 73 1014.1
20260905034609 19 0.0 0.0 0.03 0.08 0.08 74 1013.9
20260905033055 20 0.0 0.0 0.08 0.08 0.08 76 1013.7
20260905031553 20 0.0 0.0 0.08 0.08 0.08 77 1013.3
20260905030046 21 0.0 0.0 0.08 0.08 0.08 73 1011.8
20260905024543 25 0.0 0.0 0.05 0.05 0.05 55 1011.9
20260905023041 25 0.0 0.0 0.00 0.00 0.00 48 1011.1
20260905021541 25 0.0 0.0 0.00 0.00 0.00 48 1011.4
20260905020037 24 0.0 0.0 0.00 0.00 0.00 49 1011.2
20260905014536 22 0.0 0.0 0.00 0.00 0.00 54 1011.2
20260905013031 21 0.0 0.0 0.00 0.00 0.00 57 1011.2
20260905011529 21 0.0 0.0 0.00 0.00 0.00 58 1011.2
20260905010028 22 0.0 0.0 0.00 0.00 0.00 56 1011.3
20260905004538 22 0.0 0.0 0.00 0.00 0.00 56 1011.2
20260905003032 22 0.0 0.0 0.00 0.00 0.00 56 1011.0
20260905001544 21 0.0 0.0 0.00 0.00 0.00 59 1010.9
20260905000025 22 0.0 0.0 0.00 0.00 0.00 58 1010.9
20260904234532 22 0.0 0.0 0.00 0.00 0.00 57 1010.9
20260904233039 22 0.0 0.0 0.00 0.00 0.00 57 1010.9
20260904231530 22 0.0 0.0 0.00 0.00 0.00 58 1010.8
20260904230020 21 0.0 0.0 0.00 0.00 0.00 60 1010.5
20260904224519 21 0.0 0.0 0.00 0.00 0.00 61 1010.5